Location: Althorst
(53.6379°N, 10.7715°E)
Time: 03:13:07
(UTC+00:00)

Cosmos 2263 - Pass Details

Date: 10 December 2019
Orbit: 829 x 868 km, 70.9° (Epoch: 17 January)

Event Time Altitude Azimuth Distance (km) Brightness Sun altitude
Rises 18:13:00 0° 327° (NNW) 3,456 7.8 -27.6°
Reaches altitude 10° 18:15:28 10° 329° (NNW) 2,519 7.0 -27.9°
Enters shadow 18:20:25 64° 353° (N) 963 4.4 -28.7°
